Regional Weather Roundup
Issued by NWS

Home | Current Version | Previous Version | Graphics & Text | Print | Product List | Glossary On
Versions: 1 2 3 4 5 6 7 8 9 10 11 12 13 14 15 16 17 18 19 20 21 22 23 24 25 26 27 28 29 30 31 32 33 34 35 36 37 38 39 40 41 42 43 44 45 46 47 48 49 50
000
ASUS45 KTFX 271704
RWRMT
MONTANA HOURLY WEATHER ROUNDUP
NATIONAL WEATHER SERVICE GREAT FALLS MT
1004 AM MST THU NOV 27 2014

NOTE: "FAIR" INDICATES FEW OR NO CLOUDS BELOW 12000 FEET WITH NO
SIGNIFICANT WEATHER AND/OR OBSTRUCTIONS TO VISIBILITY.

* THESE STATIONS ARE NOT UNDER NWS QUALITY CONTROL. THEY DO NOT
   REPORT WEATHER SUCH AS PRECIPITATION OR FOG.

MTZ001>007-043-271800-
WEST OF THE DIVIDE
CITY           SKY/WX    TMP DP  RH WIND       PRES   REMARKS
KALISPELL      LGT RAIN  39  36  89 S8        29.88S WCI  33
MISSOULA       PTSUNNY   32  32 100 CALM      29.99R
BUTTE          PTCLDY    46  30  54 SW16G26   30.05S
MULLAN PASS    LGT RAIN  36  34  92 SW10G22   29.93S WCI  29
* ESSEX        N/A       37  35  92 NE1        N/A
* LINCOLN      N/A       37  32  82 W3         N/A
* LOOKOUT PASS N/A       42  36  79 SE11G21    N/A
* POLSON       N/A       45  35  68 S4G15      N/A
* RONAN APT    PTCLDY    43  34  71 SE6        N/A
* SEELEY LAKE  N/A       35  34  96 NE2G8      N/A
* THOMP F APT  PTCLDY    33  28  82 NE1        N/A
* YAAK HILL    N/A       37  35  92 NE1        N/A
$$

MTZ008-052>055-271800-
SOUTHWEST MONTANA
CITY           SKY/WX    TMP DP  RH WIND       PRES   REMARKS
BOZEMAN        CLOUDY    46  28  50 SW12      30.01S
DILLON         PTCLDY    45  27  49 S14       30.08S
* W YELLOWSTON CLOUDY    36  28  73 SW5G13     N/A   WCI  32
* ENNIS APT    PTSUNNY   43  28  56 S16G22     N/A
* THREE FORKS  PTCLDY    28   7  41 N/A        N/A
* BOULDER HILL N/A       45  25  45 S27G37     N/A
* MONIDA PASS  N/A       30  30 100 SE14G22    N/A   WCI  19
* RAYNOLDS PAS N/A       36  19  50 S14        N/A   WCI  27
* WHITEHALL    N/A       52  31  45 SW18G30    N/A
* WISE RIVER   N/A       43  31  63 SE3G19     N/A
$$

MTZ009>010-012-014-046-048-049-054-271800-
EAST SLOPES AND CENTRAL MONTANA
CITY           SKY/WX    TMP DP  RH WIND       PRES   REMARKS
CUT BANK       PTCLDY    45  34  65 W37G49    29.69S
GREAT FALLS    PTCLDY    48  34  59 SW26G35   29.79R
HELENA         PTCLDY    28  27  96 SE7       29.94R WCI  21
MALMSTROM AFB  PTCLDY    50  32  50 SW21G33   29.80F
* DEARBORN     N/A       55  31  40 S18G29     N/A
* EAST GLACIER N/A       37  35  92 W35G43     N/A   WCI  24
* MONARCH      N/A       45  21  38 SW35G44    N/A
* PENDROY      N/A       48  31  52 W41G56     N/A
* ROGERS PASS  N/A       42  30  63 SE17G30    N/A
* SAINT MARY   N/A       40  36  86 SW12G27    N/A   WCI  33
* SWEET GRASS  N/A       42  36  79 W28G37     N/A
$$

MTZ011-013-016-021-035-040-045-047-050-051-271800-
NORTH CENTRAL MONTANA
CITY           SKY/WX    TMP DP  RH WIND       PRES   REMARKS
HAVRE          PTSUNNY   32  30  92 CALM      29.75F
LEWISTOWN      PTSUNNY   45  28  51 SW14      29.85R
* N BAR RANCH  SUNNY     52  27  38 W23G33    29.81F
* CHESTER      N/A       22  20  92 NW2        N/A
* DENTON       N/A       45  26  47 S9         N/A
* GEYSER       N/A       46  26  46 SW24G33    N/A
* JUDITH GAP   N/A       45  27  49 SW14       N/A
* LOMA         N/A       39  31  73 NW4        N/A
$$

MTZ017>020-022>027-061-062-271800-
NORTHEAST MONTANA
CITY           SKY/WX    TMP DP  RH WIND       PRES   REMARKS
GLASGOW        FRZ RAIN  25  21  85 E25       29.82F VSB 3    WCI   9
GLENDIVE       PTSUNNY   27  21  78 SE13      29.95F WCI  16
JORDAN         PTSUNNY   34  28  79 CALM      29.83F
SIDNEY         CLOUDY    27  19  72 SE12      30.02F WCI  16
WOLF POINT     LGT SNOW  25  19  78 E12       29.94F VSB 1 1/2 WCI  14
* BEAVER HILL  N/A       23  19  85 SE26G32    N/A   WCI   6
* CIRCLE       N/A       29  26  89 SE6        N/A   WCI  23
* LINDSAY DVD  N/A       23  21  92 SE15       N/A   WCI  10
* NAVAJO       N/A       14  11  88 E7         N/A   WCI   4
* SACO         N/A       25  23  92 E10G16     N/A   WCI  15
$$

MTZ028>042-056>058-271800-
SOUTHCENTRAL AND SOUTHEAST MONTANA
CITY           SKY/WX    TMP DP  RH WIND       PRES   REMARKS
BAKER          CLOUDY    25  19  78 SE17      29.96F WCI  12
BILLINGS       CLOUDY    41  30  65 SW21G28   29.91S
LIVINGSTON     CLOUDY    50  28  43 S30G38    29.97R
MILES CITY     CLOUDY    30  25  82 S13       29.92R WCI  20
* LAUREL APT   CLOUDY    39  27  62 SW13       N/A   WCI  31
* ALZADA       N/A       21  20  96 E6         N/A   WCI  13
* HYSHAM       N/A       33  28  82 W6         N/A   WCI  27
* LAME DEER    N/A       39  29  67 SW10       N/A   WCI  32
* REED POINT   N/A       27  25  92 NW4        N/A
* ROSCOE HILL  N/A       50  14  24 S24G40     N/A
$$

REGIONAL REPORTS...DAKOTAS
CITY           SKY/WX    TMP DP  RH WIND       PRES   REMARKS
WILLISTON      CLOUDY    19  12  74 SE8       30.05F WCI   9
DICKINSON      CLOUDY    18  14  84 SE21G26   30.03F WCI   1
BEACH          CLOUDY    23  19  85 SE16G24   29.97F WCI  10
CROSBY         SUNNY     18  14  84 SE8       30.08F WCI   8
BISMARCK       CLOUDY     5   1  83 SE9       30.27F WCI  -9
GRAND FORKS    PTCLDY     1  -6  72 S12       30.46F WCI -16
FARGO          SUNNY      0  -6  75 S5        30.48F WCI -11
BUFFALO SD     PTSUNNY   19  18  96 S22       29.94F WCI   2
RAPID CITY     CLOUDY    21  19  92 SE12      30.07F WCI   9
$$

REGIONAL REPORTS...WYOMING/IDAHO/WASHINGTON
CITY           SKY/WX    TMP DP  RH WIND       PRES   REMARKS
GILLETTE       CLOUDY    43  28  56 SW14      29.98F
SHERIDAN       CLOUDY    27  25  92 CALM      29.95F
CODY           PTSUNNY   52  25  35 W8G18     30.02R
YELLOWSTONE LA CLOUDY    34  28  79 CALM      30.24R
SALMON         CLOUDY    34  32  92 CALM      30.13S
MULLAN PASS    LGT RAIN  36  34  92 SW10G22   29.93S WCI  29
SAND POINT     LGT RAIN  37  37 100 CALM      29.88R
SPOKANE        PTSUNNY   52  39  61 SW24G30   29.85F
$$

REGIONAL REPORTS...SASKATCHEWAN
CITY           SKY/WX    TMP DP  RH WIND       PRES   REMARKS
MOOSE JAW      LGT SNOW N/A N/A N/A E13        N/A   VSB 1

$$



USA.gov is the U.S. government's official web portal to all federal, state and local government web resources and services.